Regional Weather Roundup
Issued by NWS

Home | Current Version | Previous Version | Text Only | Print | Product List | Glossary On
Versions: 1 2 3 4 5 6 7 8 9 10 11 12 13 14 15 16 17 18 19 20 21 22 23 24 25 26 27 28 29 30 31 32 33 34 35 36 37 38 39 40 41 42 43 44 45 46 47 48 49 50
959
ASUS43 KMKX 290600
RWRWI

WISCONSIN REGIONAL WEATHER ROUNDUP
NATIONAL WEATHER SERVICE MILWAUKEE/SULLIVAN WI
100 AM CDT FRI JUL 29 2016

NOTE: "FAIR" INDICATES FEW OR NO CLOUDS BELOW 12,000 FEET WITH NO
SIGNIFICANT WEATHER AND/OR OBSTRUCTIONS TO VISIBILITY.

WIZ001-002-006>008-014>016-023>028-290700-
NORTHWEST WISCONSIN

CITY           SKY/WX    TMP DP  RH WIND       PRES   REMARKS
SUPERIOR ARPT  CLEAR     56  55  98 CALM      30.09S
ASHLAND        CLEAR     48  48 100 CALM      30.09S
6HR MIN TEMP:  47; 6HR MAX TEMP:  67;

HAYWARD        CLEAR     54  51  90 N3        30.10R
6HR MIN TEMP:  53; 6HR MAX TEMP:  68;

SIREN          NOT AVBL
CUMBERLAND     MOCLDY    59  52  77 NE6       30.08S
RICE LAKE      MOCLDY    59  54  85 CALM      30.09S
CHETEK         CLOUDY    63  56  77 NE3       30.07S
LADYSMITH      MOCLDY    61  55  79 NE5       30.09R
EAU CLAIRE     NOT AVBL
MENOMONIE      CLOUDY    65  62  88 NW3       30.05S
6HR MIN TEMP:  65; 6HR MAX TEMP:  69;

NEW RICHMOND   CLOUDY    60  56  84 CALM      30.07S
OSCEOLA        PTCLDY    62  55  77 N5        30.09S
$$

WIZ003>005-009-010-017-018-290700-
NORTH CENTRAL WISCONSIN

CITY           SKY/WX    TMP DP  RH WIND       PRES   REMARKS
MANITOWISH WTR CLEAR     50  50 100 CALM      30.09F
6HR MIN TEMP:  49; 6HR MAX TEMP:  67;

ARBOR VITAE    PTCLDY    54  52  94 CALM      30.09S
WOODRUFF       PTCLDY    54  52  94 CALM      30.09S
RHINELANDER    CLEAR     54  51  90 CALM      30.08F
6HR MIN TEMP:  54; 6HR MAX TEMP:  70;

EAGLE RIVER    CLEAR     50  50 100 CALM      30.09S
LAND O LAKES   CLEAR     49  47  93 CALM      30.10F
PHILLIPS       CLEAR     53  53 100 CALM      30.08S
6HR MIN TEMP:  53; 6HR MAX TEMP:  70;

TOMAHAWK       CLEAR     53  51  92 CALM      30.08F
6HR MIN TEMP:  52; 6HR MAX TEMP:  69;

MEDFORD        CLOUDY    60  56  86 E6        30.07R
MERRILL        CLOUDY    60  56  86 CALM      30.07S
6HR MIN TEMP:  60; 6HR MAX TEMP:  69;

$$

WIZ029-030-035-036-043>047-290700-
CENTRAL WISCONSIN

CITY           SKY/WX    TMP DP  RH WIND       PRES   REMARKS
WAUSAU         CLOUDY    63  55  75 VRB3      30.04S
6HR MIN TEMP:  63; 6HR MAX TEMP:  68; 6HR PCP: TRACE;

MOSINEE        CLOUDY    63  57  82 NE8       30.05F
MARSHFIELD     MOCLDY    64  59  83 NE7       30.03F
6HR MIN TEMP:  64; 6HR MAX TEMP:  66; 6HR PCP: TRACE;

STEVENS POINT  LGT RAIN  60  58  93 NE5       30.04S
WAUPACA        CLOUDY    67  60  78 N3        30.03R
WAUTOMA        CLOUDY    66  61  84 NE8       30.02R
6HR MIN TEMP:  65; 6HR MAX TEMP:  69;

WISC RAPIDS    CLOUDY    65  56  72 NE9       30.03S
6HR MIN TEMP:  65; 6HR MAX TEMP:  68; 6HR PCP: TRACE;

CAMP DOUGLAS   NOT AVBL
$$

WIZ011>013-019>022-031-037>040-048>050-290700-
NORTHEAST WISCONSIN

CITY           SKY/WX    TMP DP  RH WIND       PRES   REMARKS
ANTIGO         CLOUDY    59  54  83 CALM      30.07S
SHAWANO        CLOUDY    64  54  70 NE12      30.04S
OCONTO         CLOUDY    61  58  89 N7        30.02S
STURGEON BAY   CLOUDY    64  57  78 NE9       30.03S
6HR MIN TEMP:  64; 6HR MAX TEMP:  69; 6HR PCP: TRACE;

GREEN BAY      LGT RAIN  61  59  93 N9        30.02R
6HR MIN TEMP:  61; 6HR MAX TEMP:  68; 6HR PCP: TRACE;

MANITOWOC      NOT AVBL
APPLETON       CLOUDY    63  52  67 NE12      30.01R
CLINTONVILLE   CLOUDY    63  52  67 N6        30.03S
OSHKOSH        CLOUDY    67  58  72 NE12      30.00R
6HR MIN TEMP:  67; 6HR MAX TEMP:  69; 6HR PCP:  0.15;

$$

WIZ032>034-041-042-053>061-290700-
SOUTHWEST WISCONSIN

CITY           SKY/WX    TMP DP  RH WIND       PRES   REMARKS
LA CROSSE      CLOUDY    65  62  90 N3        30.00S
6HR MIN TEMP:  64; 6HR MAX TEMP:  66; 6HR PCP:  0.03;

SPARTA         CLOUDY    63  61  93 NE3       30.02S
VIROQUA        CLOUDY    64  64 100 NE6       30.00S
6HR MIN TEMP:  64; 6HR MAX TEMP:  65; 6HR PCP:  0.01;

BOSCOBEL       CLOUDY    70  65  84 NE5       29.97R
6HR MIN TEMP:  70; 6HR MAX TEMP:  73; 6HR PCP: TRACE;

PRAIRIE DU CHI CLOUDY    67  66  96 CALM      29.96S
PLATTEVILLE    MOCLDY    69  68  97 E9        29.97S
6HR MIN TEMP:  69; 6HR MAX TEMP:  73;

$$

WIZ056-057-062-063-064-067-068-290700-
SOUTH CENTRAL WISCONSIN

CITY           SKY/WX    TMP DP  RH WIND       PRES   REMARKS
REEDSBURG      CLOUDY    66  61  82 NE5       29.99S
6HR MIN TEMP:  66; 6HR MAX TEMP:  71;

BARABOO/DELLS  CLOUDY    65  58  78 NE6       29.99S
LONE ROCK      NOT AVBL
MINERAL POINT  CLOUDY    68  66  94 E6        29.97S
MADISON        CLOUDY    67  60  78 NE9       29.98R
6HR MIN TEMP:  67; 6HR MAX TEMP:  73;

MIDDLETON      CLOUDY    68  62  81 NE6       29.99S
WATERTOWN      CLOUDY    65  62  90 NE6       29.98R
6HR MIN TEMP:  65; 6HR MAX TEMP:  69;

MONROE         CLOUDY    64  63  94 NE8       29.97R
JANESVILLE     CLOUDY    68  64  88 NE3       29.95S
$$

WIZ051-052-058>065-066-070>072-290700-
SOUTHEAST WISCONSIN

CITY           SKY/WX    TMP DP  RH WIND       PRES   REMARKS
MILWAUKEE      CLOUDY    69  64  84 N15G22    29.95S
6HR MIN TEMP:  67; 6HR MAX TEMP:  69; 6HR PCP: TRACE;

WAUKESHA       CLOUDY    63  59  88 NE7       29.98S
MILWAUKEE/TIMM CLOUDY    66  59  77 N8        29.97F
RACINE         CLOUDY    68  64  87 N12       29.96S
6HR MIN TEMP:  66; 6HR MAX TEMP:  70;

BURLINGTON     CLOUDY    65  64  94 N5        29.95S
KENOSHA        CLOUDY    67  65  93 N6        29.95S
6HR MIN TEMP:  67; 6HR MAX TEMP:  69;

FOND DU LAC    TSTM      65  62  90 NE13      30.01R FOG
6HR MIN TEMP:  65; 6HR MAX TEMP:  72; 6HR PCP:  0.04;

SHEBOYGAN      CLOUDY    65  62  90 N10       30.00R
6HR MIN TEMP:  63; 6HR MAX TEMP:  68; 6HR PCP: TRACE;

WEST BEND      CLOUDY    63  61  94 NE6       29.98F
JUNEAU         CLOUDY    63  60  90 N9        29.99S
$$

LSZ147-162-290700-
LAKE SUPERIOR

STATION/POSITION TIME  TEMP    WIND        PRES    WAVE
                       AIR SEA DIR/SP/G            HT/PER
                 (UTC) (F)     (DEG/KT/KT) (MB)    (FT/S)
W MID LAKE BUOY  0450   61 60  360/  6/  6 1018.8S   1/ 3
DEVILS ISLAND    0500   62      30/  7/  8 1019.1F
PORT WING        0400   56      CALM  /  2 1019.0F
SAXON HARBOR     0500   54     200/  4/  6 1018.3
$$

LMZ867-665-643>646-290700-
LAKE MICHIGAN

STATION/POSITION TIME  TEMP    WIND        PRES    WAVE
                       AIR SEA DIR/SP/G            HT/PER
                 (UTC) (F)     (DEG/KT/KT) (MB)    (FT/S)
CHAMBERS ISLAND  0500   66      10/ 16/ 19 1016.9S
N MID LAKE BUOY  0450   67 69   10/ 17/ 19 1015.6R   3/ 5
NORTHPORT PIER   0500   66      10/ 11/ 14 1016.9R
SISTER BAY       0521   65      10/ 10/ 13   N/A
ALGOMA LAKESHORE 0513          360/  7/  9   N/A
KEWAUNEE LAKESHO 0500   64     350/  5/  9 1015.7S
SHEBOYGAN LAKESH 0500   64      20/ 19/ 25 1015.5S
PORT WASHINGTON  0540   67      20/  9/ 14 1015.6R
ATWATER BUOY     0500   63 62  350/ 14/ 16 1016.0
MILWAUKEE LAKESH 0510   66     330/ 12/ 14   N/A
S MID LAKE BUOY  0450   74 75   70/  8/ 10 1012.9R   2/ 6
KENOSHA   LAKESH 0500   68     350/ 12/ 13 1013.5S
$$

TC  - TEMPERATURE IN CELSIUS
VSB - VISIBILITY IN STATUTE MILES
WCI - WIND CHILL INDEX
HX  - HEAT INDEX





USA.gov is the U.S. government's official web portal to all federal, state and local government web resources and services.